| time (UTC) | temp C | wind direction | speed KPH | gust KPH | rain 1hr cm | rain 24hr cm | rain mn cm | humidity % | barometer mb |
| 20260506035029 | 16 | 0 | 0.0 | 3.2 | 0.00 | 0.03 | 0.03 | 77 | 1007.7 |
| 20260506034605 | 16 | 0 | 0.0 | 3.2 | 0.00 | 0.03 | 0.03 | 76 | 1007.6 |
| 20260506034029 | 16 | 52 | 0.0 | 4.8 | 0.00 | 0.03 | 0.03 | 76 | 1007.7 |
| 20260506033529 | 16 | 52 | 0.0 | 4.8 | 0.00 | 0.03 | 0.03 | 76 | 1007.7 |
| 20260506033037 | 16 | 0 | 1.6 | 4.8 | 0.00 | 0.03 | 0.03 | 74 | 1007.7 |
| 20260506032529 | 17 | 53 | 1.6 | 4.8 | 0.00 | 0.03 | 0.03 | 73 | 1007.7 |
| 20260506032029 | 17 | 0 | 0.0 | 6.4 | 0.00 | 0.03 | 0.03 | 73 | 1007.7 |
| 20260506031542 | 17 | 0 | 1.6 | 6.4 | 0.00 | 0.03 | 0.03 | 70 | 1007.5 |
| 20260506031032 | 17 | 200 | 3.2 | 6.4 | 0.00 | 0.03 | 0.03 | 70 | 1007.6 |
| 20260506030529 | 17 | 187 | 1.6 | 12.9 | 0.00 | 0.03 | 0.03 | 71 | 1007.7 |
| 20260506030039 | 17 | 169 | 3.2 | 12.9 | 0.00 | 0.03 | 0.03 | 71 | 1007.7 |
| 20260506025533 | 17 | 170 | 1.6 | 12.9 | 0.00 | 0.03 | 0.03 | 71 | 1007.5 |
| 20260506025029 | 17 | 204 | 1.6 | 8.0 | 0.00 | 0.03 | 0.03 | 70 | 1007.7 |
| 20260506024542 | 17 | 205 | 0.0 | 8.0 | 0.00 | 0.03 | 0.03 | 70 | 1007.8 |
| 20260506024030 | 17 | 216 | 1.6 | 9.7 | 0.00 | 0.03 | 0.03 | 70 | 1007.8 |
| 20260506023530 | 17 | 0 | 4.8 | 11.3 | 0.00 | 0.03 | 0.03 | 70 | 1007.7 |
| 20260506023059 | 17 | 217 | 4.8 | 14.5 | 0.00 | 0.03 | 0.03 | 71 | 1007.7 |
| 20260506022529 | 17 | 160 | 4.8 | 14.5 | 0.00 | 0.03 | 0.03 | 72 | 1007.8 |
| 20260506022029 | 16 | 197 | 1.6 | 8.0 | 0.00 | 0.03 | 0.03 | 72 | 1007.6 |
| 20260506021543 | 16 | 162 | 1.6 | 8.0 | 0.00 | 0.03 | 0.03 | 73 | 1007.5 |
| 20260506021029 | 16 | 182 | 3.2 | 9.7 | 0.00 | 0.03 | 0.03 | 73 | 1007.6 |
| 20260506020529 | 16 | 173 | 1.6 | 9.7 | 0.00 | 0.03 | 0.03 | 74 | 1007.7 |
| 20260506020046 | 16 | 175 | 1.6 | 9.7 | 0.00 | 0.03 | 0.03 | 75 | 1007.7 |
| 20260506015530 | 16 | 0 | 3.2 | 9.7 | 0.00 | 0.03 | 0.03 | 74 | 1007.7 |
| 20260506015034 | 16 | 155 | 0.0 | 6.4 | 0.00 | 0.03 | 0.03 | 73 | 1007.7 |
| 20260506014540 | 16 | 0 | 1.6 | 6.4 | 0.00 | 0.03 | 0.03 | 73 | 1007.5 |
| 20260506014029 | 16 | 153 | 0.0 | 6.4 | 0.00 | 0.03 | 0.03 | 72 | 1007.5 |
| 20260506013529 | 16 | 0 | 1.6 | 6.4 | 0.00 | 0.03 | 0.03 | 73 | 1007.3 |
| 20260506013041 | 16 | 0 | 1.6 | 4.8 | 0.00 | 0.03 | 0.03 | 73 | 1007.4 |
| 20260506012529 | 16 | 209 | 0.0 | 6.4 | 0.00 | 0.03 | 0.03 | 73 | 1007.4 |
| 20260506012030 | 16 | 204 | 1.6 | 6.4 | 0.00 | 0.03 | 0.03 | 73 | 1007.4 |
| 20260506011534 | 16 | 138 | 1.6 | 6.4 | 0.00 | 0.03 | 0.03 | 73 | 1007.4 |
| 20260506011029 | 16 | 0 | 1.6 | 4.8 | 0.00 | 0.03 | 0.03 | 73 | 1007.4 |
| 20260506010530 | 16 | 196 | 0.0 | 4.8 | 0.00 | 0.03 | 0.03 | 73 | 1007.3 |
| 20260506010038 | 16 | 0 | 0.0 | 6.4 | 0.00 | 0.03 | 0.03 | 74 | 1007.5 |
| 20260506005528 | 16 | 210 | 1.6 | 6.4 | 0.00 | 0.03 | 0.03 | 74 | 1007.3 |
| 20260506005029 | 16 | 180 | 1.6 | 6.4 | 0.00 | 0.03 | 0.03 | 74 | 1007.5 |
| 20260506004600 | 16 | 252 | 1.6 | 9.7 | 0.00 | 0.03 | 0.03 | 75 | 1007.4 |
| 20260506004030 | 16 | 0 | 3.2 | 9.7 | 0.00 | 0.03 | 0.03 | 75 | 1007.4 |
| 20260506003530 | 16 | 265 | 1.6 | 8.0 | 0.00 | 0.03 | 0.03 | 75 | 1007.3 |
| 20260506003051 | 16 | 255 | 3.2 | 9.7 | 0.00 | 0.03 | 0.03 | 76 | 1007.3 |
| 20260506002529 | 16 | 0 | 3.2 | 11.3 | 0.00 | 0.03 | 0.03 | 76 | 1007.3 |
| 20260506002030 | 16 | 248 | 3.2 | 11.3 | 0.00 | 0.03 | 0.03 | 76 | 1007.1 |
| 20260506001541 | 16 | 277 | 3.2 | 9.7 | 0.00 | 0.03 | 0.03 | 76 | 1007.2 |
| 20260506001030 | 16 | 265 | 1.6 | 6.4 | 0.00 | 0.03 | 0.03 | 77 | 1007.0 |
| 20260506000530 | 16 | 238 | 3.2 | 11.3 | 0.00 | 0.03 | 0.03 | 76 | 1007.1 |
| 20260506000040 | 16 | 266 | 3.2 | 11.3 | 0.00 | 0.03 | 0.03 | 76 | 1007.0 |
| 20260505235530 | 16 | 277 | 3.2 | 9.7 | 0.00 | 0.03 | 0.03 | 77 | 1007.0 |
| 20260505235030 | 16 | 242 | 1.6 | 12.9 | 0.00 | 0.03 | 0.03 | 76 | 1006.9 |
| 20260505234558 | 16 | 269 | 3.2 | 12.9 | 0.00 | 0.03 | 0.03 | 77 | 1006.8 |
| 20260505234032 | 16 | 293 | 4.8 | 12.9 | 0.00 | 0.03 | 0.03 | 77 | 1006.8 |
| 20260505233532 | 16 | 262 | 3.2 | 11.3 | 0.00 | 0.03 | 0.03 | 77 | 1006.8 |
| 20260505233041 | 16 | 264 | 4.8 | 11.3 | 0.00 | 0.03 | 0.03 | 78 | 1006.6 |
| 20260505232530 | 16 | 265 | 4.8 | 11.3 | 0.00 | 0.03 | 0.03 | 78 | 1006.6 |
| 20260505232032 | 16 | 271 | 6.4 | 12.9 | 0.00 | 0.03 | 0.03 | 78 | 1006.5 |
| 20260505231541 | 16 | 271 | 3.2 | 12.9 | 0.00 | 0.03 | 0.03 | 79 | 1006.4 |
| 20260505231030 | 16 | 255 | 4.8 | 11.3 | 0.00 | 0.03 | 0.03 | 79 | 1006.4 |
| 20260505230530 | 16 | 243 | 3.2 | 9.7 | 0.00 | 0.03 | 0.03 | 80 | 1006.0 |
| 20260505230043 | 16 | 296 | 1.6 | 11.3 | 0.00 | 0.03 | 0.03 | 79 | 1005.9 |
| 20260505225530 | 16 | 244 | 3.2 | 14.5 | 0.00 | 0.03 | 0.03 | 79 | 1006.0 |
| 20260505225036 | 16 | 271 | 8.0 | 16.1 | 0.03 | 0.03 | 0.03 | 78 | 1006.2 |
| 20260505224541 | 16 | 296 | 6.4 | 16.1 | 0.03 | 0.03 | 0.03 | 79 | 1006.2 |
| 20260505224030 | 16 | 279 | 6.4 | 12.9 | 0.03 | 0.03 | 0.03 | 79 | 1006.0 |
| 20260505223530 | 16 | 309 | 4.8 | 12.9 | 0.03 | 0.03 | 0.03 | 78 | 1005.8 |
| 20260505223044 | 16 | 268 | 4.8 | 11.3 | 0.03 | 0.03 | 0.03 | 77 | 1005.9 |
| 20260505222530 | 16 | 273 | 3.2 | 9.7 | 0.03 | 0.03 | 0.03 | 77 | 1005.5 |
| 20260505222032 | 17 | 263 | 1.6 | 6.4 | 0.03 | 0.03 | 0.03 | 79 | 1005.1 |
| 20260505221540 | 17 | 287 | 0.0 | 6.4 | 0.03 | 0.03 | 0.03 | 77 | 1004.7 |
| 20260505221029 | 17 | 284 | 1.6 | 6.4 | 0.03 | 0.03 | 0.03 | 78 | 1004.9 |
| 20260505220527 | 17 | 267 | 0.0 | 4.8 | 0.03 | 0.03 | 0.03 | 82 | 1004.7 |
| 20260505220055 | 17 | 194 | 1.6 | 6.4 | 0.03 | 0.03 | 0.03 | 76 | 1004.4 |
| 20260505215528 | 16 | 217 | 0.0 | 12.9 | 0.03 | 0.03 | 0.03 | 77 | 1004.4 |
| 20260505215027 | 16 | 301 | 3.2 | 12.9 | 0.00 | 0.00 | 0.00 | 77 | 1005.0 |
| 20260505214540 | 16 | 269 | 4.8 | 16.1 | 0.00 | 0.00 | 0.00 | 77 | 1005.5 |
| 20260505214027 | 16 | 272 | 8.0 | 25.7 | 0.00 | 0.00 | 0.00 | 75 | 1004.8 |
| 20260505213527 | 16 | 294 | 6.4 | 37.0 | 0.00 | 0.00 | 0.00 | 75 | 1004.9 |
| 20260505213041 | 17 | 309 | 14.5 | 37.0 | 0.00 | 0.00 | 0.00 | 72 | 1005.1 |
| 20260505212530 | 18 | 5 | 16.1 | 54.7 | 0.00 | 0.00 | 0.00 | 65 | 1005.0 |
| 20260505212028 | 21 | 280 | 16.1 | 54.7 | 0.00 | 0.00 | 0.00 | 52 | 1004.8 |
| 20260505211548 | 24 | 257 | 16.1 | 54.7 | 0.00 | 0.00 | 0.00 | 39 | 1004.6 |
| 20260505211032 | 24 | 170 | 17.7 | 38.6 | 0.00 | 0.00 | 0.00 | 36 | 1003.0 |
| 20260505210529 | 24 | 175 | 12.9 | 33.8 | 0.00 | 0.00 | 0.00 | 37 | 1002.9 |
| 20260505210041 | 24 | 232 | 14.5 | 33.8 | 0.00 | 0.00 | 0.00 | 38 | 1002.9 |
| 20260505205533 | 24 | 219 | 9.7 | 38.6 | 0.00 | 0.00 | 0.00 | 39 | 1002.7 |
| 20260505205034 | 24 | 296 | 14.5 | 46.7 | 0.00 | 0.00 | 0.00 | 39 | 1002.7 |
| 20260505204539 | 24 | 229 | 14.5 | 46.7 | 0.00 | 0.00 | 0.00 | 38 | 1002.6 |
| 20260505204030 | 24 | 282 | 14.5 | 46.7 | 0.00 | 0.00 | 0.00 | 38 | 1002.7 |
| 20260505203527 | 25 | 196 | 16.1 | 35.4 | 0.00 | 0.00 | 0.00 | 37 | 1002.8 |
| 20260505203039 | 25 | 221 | 12.9 | 29.0 | 0.00 | 0.00 | 0.00 | 37 | 1002.9 |
| 20260505202527 | 24 | 193 | 14.5 | 33.8 | 0.00 | 0.00 | 0.00 | 38 | 1002.9 |
| 20260505202030 | 24 | 245 | 11.3 | 35.4 | 0.00 | 0.00 | 0.00 | 37 | 1002.9 |
| 20260505201544 | 24 | 165 | 16.1 | 35.4 | 0.00 | 0.00 | 0.00 | 37 | 1002.8 |
| 20260505201030 | 24 | 267 | 14.5 | 35.4 | 0.00 | 0.00 | 0.00 | 37 | 1003.0 |
| 20260505200532 | 25 | 213 | 14.5 | 30.6 | 0.00 | 0.00 | 0.00 | 36 | 1002.9 |
| 20260505200041 | 25 | 208 | 14.5 | 35.4 | 0.00 | 0.00 | 0.00 | 37 | 1002.9 |
| 20260505195529 | 25 | 339 | 16.1 | 35.4 | 0.00 | 0.00 | 0.00 | 36 | 1002.9 |
| 20260505195029 | 26 | 177 | 14.5 | 37.0 | 0.00 | 0.00 | 0.00 | 35 | 1003.0 |
| 20260505194542 | 25 | 197 | 16.1 | 37.0 | 0.00 | 0.00 | 0.00 | 36 | 1003.0 |
| 20260505194031 | 26 | 170 | 14.5 | 51.5 | 0.00 | 0.00 | 0.00 | 35 | 1003.1 |
| 20260505193530 | 25 | 219 | 19.3 | 51.5 | 0.00 | 0.00 | 0.00 | 37 | 1003.1 |
| 20260505193045 | 25 | 258 | 14.5 | 35.4 | 0.00 | 0.00 | 0.00 | 35 | 1003.2 |
| 20260505192530 | 25 | 287 | 16.1 | 35.4 | 0.00 | 0.00 | 0.00 | 34 | 1003.2 |
| 20260505192033 | 25 | 205 | 14.5 | 37.0 | 0.00 | 0.00 | 0.00 | 34 | 1003.1 |
| 20260505191549 | 26 | 199 | 19.3 | 37.0 | 0.00 | 0.00 | 0.00 | 34 | 1003.0 |
| 20260505191032 | 26 | 244 | 14.5 | 30.6 | 0.00 | 0.00 | 0.00 | 34 | 1003.2 |
| 20260505190529 | 25 | 205 | 9.7 | 35.4 | 0.00 | 0.00 | 0.00 | 37 | 1003.4 |
| 20260505190035 | 25 | 164 | 12.9 | 35.4 | 0.00 | 0.00 | 0.00 | 37 | 1003.6 |
| 20260505185530 | 25 | 225 | 8.0 | 38.6 | 0.00 | 0.00 | 0.00 | 36 | 1003.5 |
| 20260505185032 | 25 | 237 | 14.5 | 38.6 | 0.00 | 0.00 | 0.00 | 35 | 1003.6 |
| 20260505184543 | 25 | 259 | 19.3 | 40.2 | 0.00 | 0.00 | 0.00 | 36 | 1003.5 |
| 20260505184029 | 25 | 213 | 19.3 | 40.2 | 0.00 | 0.00 | 0.00 | 35 | 1003.6 |
| 20260505183529 | 25 | 262 | 14.5 | 33.8 | 0.00 | 0.00 | 0.00 | 36 | 1003.7 |
| 20260505183041 | 25 | 240 | 16.1 | 32.2 | 0.00 | 0.00 | 0.00 | 37 | 1003.9 |
| 20260505182529 | 25 | 170 | 14.5 | 30.6 | 0.00 | 0.00 | 0.00 | 36 | 1004.0 |
| 20260505182029 | 24 | 253 | 14.5 | 45.1 | 0.00 | 0.00 | 0.00 | 38 | 1004.1 |
| 20260505181540 | 24 | 194 | 12.9 | 45.1 | 0.00 | 0.00 | 0.00 | 37 | 1004.1 |
| 20260505181029 | 24 | 181 | 17.7 | 45.1 | 0.00 | 0.00 | 0.00 | 37 | 1004.4 |
| 20260505180529 | 24 | 230 | 12.9 | 30.6 | 0.00 | 0.00 | 0.00 | 37 | 1004.3 |
| 20260505180054 | 24 | 232 | 14.5 | 30.6 | 0.00 | 0.00 | 0.00 | 37 | 1004.4 |
| 20260505175529 | 24 | 265 | 16.1 | 30.6 | 0.00 | 0.00 | 0.00 | 37 | 1004.6 |
| 20260505175033 | 25 | 250 | 14.5 | 32.2 | 0.00 | 0.00 | 0.00 | 36 | 1004.4 |
| 20260505174605 | 25 | 263 | 16.1 | 38.6 | 0.00 | 0.00 | 0.00 | 36 | 1004.5 |
| 20260505174028 | 25 | 207 | 12.9 | 40.2 | 0.00 | 0.00 | 0.00 | 37 | 1004.7 |
| 20260505173529 | 25 | 163 | 19.3 | 40.2 | 0.00 | 0.00 | 0.00 | 36 | 1004.6 |
| 20260505173044 | 25 | 135 | 12.9 | 49.9 | 0.00 | 0.00 | 0.00 | 38 | 1004.7 |
| 20260505172531 | 25 | 295 | 22.5 | 49.9 | 0.00 | 0.00 | 0.00 | 36 | 1004.8 |
| 20260505172029 | 25 | 248 | 14.5 | 32.2 | 0.00 | 0.00 | 0.00 | 39 | 1004.9 |
| 20260505171540 | 25 | 282 | 8.0 | 32.2 | 0.00 | 0.00 | 0.00 | 39 | 1004.8 |
| 20260505171028 | 24 | 224 | 12.9 | 32.2 | 0.00 | 0.00 | 0.00 | 39 | 1004.9 |
| 20260505170527 | 24 | 300 | 16.1 | 33.8 | 0.00 | 0.00 | 0.00 | 38 | 1005.0 |
| 20260505170050 | 24 | 261 | 16.1 | 41.8 | 0.00 | 0.00 | 0.00 | 37 | 1005.1 |
| 20260505165531 | 24 | 207 | 19.3 | 41.8 | 0.00 | 0.00 | 0.00 | 39 | 1005.1 |
| 20260505165030 | 24 | 221 | 11.3 | 30.6 | 0.00 | 0.00 | 0.00 | 40 | 1005.3 |
| 20260505164543 | 23 | 248 | 9.7 | 30.6 | 0.00 | 0.00 | 0.00 | 44 | 1005.2 |
| 20260505164030 | 23 | 180 | 14.5 | 30.6 | 0.00 | 0.00 | 0.00 | 41 | 1005.5 |
| 20260505163528 | 23 | 279 | 6.4 | 22.5 | 0.00 | 0.00 | 0.00 | 44 | 1005.6 |
| 20260505163043 | 23 | 193 | 12.9 | 25.7 | 0.00 | 0.00 | 0.00 | 43 | 1005.6 |
| 20260505162529 | 23 | 202 | 8.0 | 25.7 | 0.00 | 0.00 | 0.00 | 45 | 1005.7 |
| 20260505162027 | 23 | 291 | 8.0 | 29.0 | 0.00 | 0.00 | 0.00 | 43 | 1005.8 |
| 20260505161543 | 23 | 174 | 8.0 | 29.0 | 0.00 | 0.00 | 0.00 | 44 | 1005.8 |
| 20260505161032 | 22 | 306 | 11.3 | 29.0 | 0.00 | 0.00 | 0.00 | 45 | 1005.8 |
| 20260505160528 | 22 | 167 | 14.5 | 27.4 | 0.00 | 0.00 | 0.00 | 44 | 1005.9 |
| 20260505153053 | 22 | 348 | 12.9 | 29.0 | 0.00 | 0.00 | 0.00 | 47 | 1006.9 |
| 20260505152529 | 22 | 257 | 14.5 | 29.0 | 0.00 | 0.00 | 0.00 | 48 | 1006.9 |
| 20260505152027 | 21 | 223 | 11.3 | 32.2 | 0.00 | 0.00 | 0.00 | 49 | 1007.0 |
| 20260505151546 | 21 | 152 | 11.3 | 32.2 | 0.00 | 0.00 | 0.00 | 48 | 1006.9 |
| 20260505151029 | 21 | 182 | 14.5 | 29.0 | 0.00 | 0.00 | 0.00 | 47 | 1007.0 |
| 20260505150529 | 21 | 187 | 16.1 | 29.0 | 0.00 | 0.00 | 0.00 | 47 | 1007.0 |
| 20260505140530 | 19 | 177 | 8.0 | 32.2 | 0.00 | 0.00 | 0.00 | 54 | 1007.2 |
| 20260505125029 | 15 | 233 | 3.2 | 16.1 | 0.00 | 0.00 | 0.00 | 62 | 1007.1 |
| 20260505124542 | 15 | 198 | 6.4 | 17.7 | 0.00 | 0.00 | 0.00 | 61 | 1006.9 |
| 20260505124029 | 15 | 295 | 8.0 | 17.7 | 0.00 | 0.00 | 0.00 | 61 | 1006.9 |
| 20260505123530 | 15 | 180 | 8.0 | 16.1 | 0.00 | 0.00 | 0.00 | 60 | 1007.2 |
| 20260505123058 | 15 | 205 | 8.0 | 16.1 | 0.00 | 0.00 | 0.00 | 61 | 1006.9 |
| 20260505122529 | 15 | 209 | 6.4 | 16.1 | 0.00 | 0.00 | 0.00 | 60 | 1006.9 |
| 20260505122029 | 15 | 250 | 8.0 | 16.1 | 0.00 | 0.00 | 0.00 | 60 | 1006.8 |
| 20260505121546 | 15 | 274 | 8.0 | 19.3 | 0.00 | 0.00 | 0.00 | 58 | 1007.1 |
| 20260505121030 | 15 | 245 | 8.0 | 19.3 | 0.00 | 0.00 | 0.00 | 60 | 1007.0 |
| 20260505120532 | 15 | 281 | 9.7 | 17.7 | 0.00 | 0.00 | 0.00 | 60 | 1007.3 |
| 20260505120046 | 14 | 229 | 8.0 | 16.1 | 0.00 | 0.00 | 0.00 | 60 | 1007.1 |
| 20260505115529 | 14 | 223 | 9.7 | 16.1 | 0.00 | 0.00 | 0.00 | 60 | 1007.2 |
| 20260505115030 | 14 | 241 | 8.0 | 14.5 | 0.00 | 0.00 | 0.00 | 60 | 1007.2 |
| 20260505114610 | 14 | 259 | 4.8 | 11.3 | 0.00 | 0.00 | 0.00 | 61 | 1007.3 |
| 20260505114030 | 13 | 285 | 3.2 | 11.3 | 0.00 | 0.00 | 0.00 | 62 | 1007.3 |
| 20260505113527 | 13 | 270 | 3.2 | 12.9 | 0.00 | 0.00 | 0.00 | 62 | 1007.4 |
| 20260505113045 | 13 | 305 | 1.6 | 12.9 | 0.00 | 0.00 | 0.00 | 63 | 1007.4 |
| 20260505112529 | 13 | 275 | 6.4 | 12.9 | 0.00 | 0.00 | 0.00 | 64 | 1007.2 |
| 20260505112029 | 12 | 268 | 1.6 | 8.0 | 0.00 | 0.00 | 0.00 | 67 | 1007.1 |
| 20260505111606 | 12 | 0 | 0.0 | 8.0 | 0.00 | 0.00 | 0.00 | 69 | 1007.0 |
| 20260505111030 | 11 | 344 | 1.6 | 8.0 | 0.00 | 0.00 | 0.00 | 68 | 1006.8 |
| 20260505110529 | 11 | 0 | 0.0 | 0.0 | 0.00 | 0.00 | 0.00 | 70 | 1006.8 |
| 20260505102032 | 10 | 266 | 0.0 | 1.6 | 0.00 | 0.00 | 0.00 | 70 | 1006.8 |
| 20260505101536 | 10 | 266 | 0.0 | 1.6 | 0.00 | 0.00 | 0.00 | 69 | 1006.9 |
| 20260505101030 | 11 | 0 | 0.0 | 3.2 | 0.00 | 0.00 | 0.00 | 69 | 1006.7 |
| 20260505100530 | 11 | 0 | 0.0 | 3.2 | 0.00 | 0.00 | 0.00 | 68 | 1006.7 |
| 20260505100040 | 11 | 266 | 0.0 | 3.2 | 0.00 | 0.00 | 0.00 | 67 | 1006.8 |
| 20260505095532 | 11 | 266 | 0.0 | 4.8 | 0.00 | 0.00 | 0.00 | 66 | 1006.7 |
| 20260505095029 | 11 | 268 | 0.0 | 4.8 | 0.00 | 0.00 | 0.00 | 65 | 1006.8 |
| 20260505094545 | 11 | 223 | 1.6 | 6.4 | 0.00 | 0.00 | 0.00 | 65 | 1006.8 |
| 20260505094031 | 12 | 0 | 1.6 | 12.9 | 0.00 | 0.00 | 0.00 | 64 | 1006.8 |
| 20260505093529 | 12 | 259 | 1.6 | 12.9 | 0.00 | 0.00 | 0.00 | 64 | 1006.8 |
| 20260505093040 | 12 | 294 | 1.6 | 11.3 | 0.00 | 0.00 | 0.00 | 64 | 1006.9 |
| 20260505092530 | 12 | 0 | 3.2 | 11.3 | 0.00 | 0.00 | 0.00 | 64 | 1007.0 |
| 20260505092030 | 12 | 268 | 3.2 | 12.9 | 0.00 | 0.00 | 0.00 | 62 | 1006.9 |
| 20260505091542 | 12 | 266 | 4.8 | 16.1 | 0.00 | 0.00 | 0.00 | 62 | 1006.9 |
| 20260505091029 | 12 | 255 | 4.8 | 16.1 | 0.00 | 0.00 | 0.00 | 61 | 1007.0 |
| 20260505090530 | 12 | 250 | 8.0 | 16.1 | 0.00 | 0.00 | 0.00 | 60 | 1006.9 |
| 20260505090048 | 12 | 230 | 6.4 | 16.1 | 0.00 | 0.00 | 0.00 | 61 | 1006.9 |
| 20260505085530 | 12 | 239 | 6.4 | 16.1 | 0.00 | 0.00 | 0.00 | 61 | 1007.0 |
| 20260505085030 | 12 | 277 | 6.4 | 14.5 | 0.00 | 0.00 | 0.00 | 61 | 1007.1 |
| 20260505084538 | 12 | 292 | 4.8 | 14.5 | 0.00 | 0.00 | 0.00 | 60 | 1007.0 |
| 20260505084029 | 12 | 244 | 4.8 | 14.5 | 0.00 | 0.00 | 0.00 | 60 | 1006.9 |
| 20260505083529 | 12 | 265 | 4.8 | 14.5 | 0.00 | 0.00 | 0.00 | 60 | 1006.9 |
| 20260505083046 | 12 | 240 | 6.4 | 16.1 | 0.00 | 0.00 | 0.00 | 60 | 1007.0 |
| 20260505082529 | 12 | 271 | 4.8 | 16.1 | 0.00 | 0.00 | 0.00 | 61 | 1007.0 |
| 20260505082031 | 12 | 256 | 4.8 | 11.3 | 0.00 | 0.00 | 0.00 | 61 | 1007.2 |
| 20260505081548 | 12 | 257 | 3.2 | 12.9 | 0.00 | 0.00 | 0.00 | 61 | 1007.0 |
| 20260505081030 | 12 | 283 | 3.2 | 12.9 | 0.00 | 0.00 | 0.00 | 61 | 1007.0 |
| 20260505080529 | 12 | 276 | 3.2 | 12.9 | 0.00 | 0.00 | 0.00 | 61 | 1007.0 |
| 20260505080042 | 12 | 301 | 3.2 | 6.4 | 0.00 | 0.00 | 0.00 | 60 | 1007.2 |
| 20260505075529 | 12 | 309 | 1.6 | 8.0 | 0.00 | 0.00 | 0.00 | 59 | 1007.2 |
| 20260505075029 | 13 | 323 | 1.6 | 14.5 | 0.00 | 0.00 | 0.00 | 59 | 1007.1 |
| 20260505074543 | 13 | 290 | 1.6 | 14.5 | 0.00 | 0.00 | 0.00 | 59 | 1007.2 |
| 20260505074030 | 13 | 251 | 4.8 | 17.7 | 0.00 | 0.00 | 0.00 | 59 | 1007.2 |
| 20260505073530 | 13 | 219 | 4.8 | 17.7 | 0.00 | 0.00 | 0.00 | 58 | 1007.1 |
| 20260505073040 | 13 | 269 | 6.4 | 17.7 | 0.00 | 0.00 | 0.00 | 58 | 1007.2 |
| 20260505072532 | 13 | 209 | 4.8 | 16.1 | 0.00 | 0.00 | 0.00 | 59 | 1007.2 |
| 20260505072032 | 13 | 236 | 4.8 | 16.1 | 0.00 | 0.00 | 0.00 | 58 | 1007.3 |
| 20260505071543 | 13 | 219 | 6.4 | 16.1 | 0.00 | 0.00 | 0.00 | 58 | 1007.2 |
| 20260505071029 | 12 | 296 | 4.8 | 17.7 | 0.00 | 0.00 | 0.00 | 60 | 1007.3 |
| 20260505070530 | 12 | 166 | 8.0 | 17.7 | 0.00 | 0.00 | 0.00 | 60 | 1007.2 |
| 20260505070050 | 12 | 217 | 3.2 | 11.3 | 0.00 | 0.00 | 0.00 | 61 | 1007.3 |
| 20260505065530 | 12 | 177 | 3.2 | 11.3 | 0.00 | 0.00 | 0.00 | 61 | 1007.3 |
| 20260505065029 | 12 | 280 | 0.0 | 11.3 | 0.00 | 0.00 | 0.00 | 61 | 1007.3 |
| 20260505064555 | 12 | 0 | 3.2 | 11.3 | 0.00 | 0.00 | 0.00 | 61 | 1007.3 |
| 20260505064029 | 12 | 217 | 4.8 | 11.3 | 0.00 | 0.00 | 0.00 | 61 | 1007.5 |
| 20260505063529 | 12 | 261 | 3.2 | 11.3 | 0.00 | 0.00 | 0.00 | 62 | 1007.5 |
| 20260505063046 | 12 | 244 | 4.8 | 11.3 | 0.00 | 0.00 | 0.00 | 63 | 1007.5 |
| 20260505062530 | 11 | 234 | 0.0 | 3.2 | 0.00 | 0.00 | 0.00 | 64 | 1007.5 |
| 20260505062030 | 12 | 236 | 0.0 | 3.2 | 0.00 | 0.00 | 0.00 | 64 | 1007.6 |
| 20260505061550 | 12 | 230 | 0.0 | 4.8 | 0.00 | 0.00 | 0.00 | 63 | 1007.6 |
| 20260505061031 | 12 | 0 | 1.6 | 4.8 | 0.00 | 0.00 | 0.00 | 62 | 1007.6 |
| 20260505060529 | 12 | 296 | 0.0 | 11.3 | 0.00 | 0.00 | 0.00 | 62 | 1007.7 |
| 20260505060046 | 12 | 0 | 1.6 | 11.3 | 0.00 | 0.00 | 0.00 | 62 | 1007.7 |
| 20260505055529 | 12 | 178 | 1.6 | 8.0 | 0.00 | 0.00 | 0.00 | 62 | 1007.6 |
| 20260505055030 | 12 | 206 | 3.2 | 8.0 | 0.00 | 0.00 | 0.00 | 62 | 1007.6 |
| 20260505054553 | 12 | 274 | 1.6 | 11.3 | 0.00 | 0.00 | 0.00 | 62 | 1007.5 |
| 20260505054030 | 12 | 219 | 3.2 | 11.3 | 0.00 | 0.00 | 0.00 | 61 | 1007.6 |
| 20260505053529 | 12 | 224 | 3.2 | 11.3 | 0.00 | 0.00 | 0.00 | 61 | 1007.7 |
| 20260505053042 | 12 | 309 | 3.2 | 12.9 | 0.00 | 0.00 | 0.00 | 60 | 1007.7 |
| 20260505052529 | 12 | 213 | 1.6 | 12.9 | 0.00 | 0.00 | 0.00 | 60 | 1007.7 |
| 20260505052029 | 12 | 257 | 4.8 | 9.7 | 0.00 | 0.00 | 0.00 | 60 | 1007.8 |
| 20260505051535 | 12 | 264 | 3.2 | 12.9 | 0.00 | 0.00 | 0.00 | 59 | 1007.7 |
| 20260505051029 | 13 | 246 | 4.8 | 12.9 | 0.00 | 0.00 | 0.00 | 59 | 1007.7 |
| 20260505050533 | 13 | 229 | 4.8 | 12.9 | 0.00 | 0.00 | 0.00 | 59 | 1007.7 |
| 20260505041548 | 13 | 250 | 1.6 | 6.4 | 0.00 | 0.00 | 0.00 | 57 | 1007.4 |
| 20260505041029 | 13 | 0 | 0.0 | 4.8 | 0.00 | 0.00 | 0.00 | 56 | 1007.4 |
| 20260505040529 | 13 | 0 | 0.0 | 4.8 | 0.00 | 0.00 | 0.00 | 55 | 1007.4 |
| 20260505040039 | 13 | 317 | 3.2 | 4.8 | 0.00 | 0.00 | 0.00 | 54 | 1007.3 |
| 20260505035529 | 13 | 0 | 0.0 | 6.4 | 0.00 | 0.00 | 0.00 | 53 | 1007.3 |